�N����,����,�~����,�C��,���x,�C��,����,���ϕ���,�ő�u�ԕ���,�ő厞����,���˗�,�I�_���x,�n�����x,�ő啗���N��,DTYPE
"20/09/27","00:10",0.0,19.5,95.2,1005.7,331.0,1.1,2.2,343.3,0.00,18.8,22.1,"00:03:36",1
"20/09/27","00:20",0.0,19.6,95.3,1005.7,311.0,1.5,3.4,337.4,0.00,18.9,22.1,"00:14:00",1
"20/09/27","00:30",0.0,19.7,95.2,1005.5,333.0,1.6,3.1,312.1,0.00,19.0,22.2,"00:23:44",1
"20/09/27","00:40",0.0,19.7,95.2,1005.7,313.8,1.0,1.8,343.2,0.00,19.0,22.2,"00:35:28",1
"20/09/27","00:50",0.0,19.7,95.2,1005.5,287.4,1.1,2.6,335.2,0.00,19.0,22.2,"00:49:12",1
"20/09/27","01:00",0.0,19.6,95.2,1005.7,341.2,1.3,2.6,341.3,0.00,18.9,22.2,"00:54:48",1
"20/09/27","01:10",0.0,19.7,95.2,1005.7,346.8,1.3,3.2,327.2,0.00,19.0,22.1,"01:05:04",1
"20/09/27","01:20",0.0,19.7,95.1,1005.5,332.5,1.3,2.4,339.9,0.00,18.9,22.2,"01:19:52",1
"20/09/27","01:30",0.0,19.7,95.1,1005.5,333.7,1.7,3.6,331.9,0.00,18.9,22.1,"01:29:52",1
"20/09/27","01:40",0.0,19.7,95.0,1005.7,334.0,2.0,4.5,329.8,0.00,18.9,22.1,"01:30:08",1
"20/09/27","01:50",0.0,19.7,95.0,1005.2,323.2,1.3,2.6,338.3,0.00,18.9,22.1,"01:42:56",1
"20/09/27","02:00",0.0,19.7,95.0,1005.7,328.0,1.0,1.9,326.7,0.00,18.9,22.0,"01:55:20",1
"20/09/27","02:10",0.0,19.6,95.0,1005.5,337.1,0.5,1.1,334.1,0.00,18.8,22.0,"02:00:56",1
"20/09/27","02:20",0.0,19.4,95.0,1005.2,303.1,0.6,1.3,319.3,0.00,18.6,22.0,"02:13:28",1
"20/09/27","02:30",0.0,19.3,95.0,1005.2,305.9,0.7,1.3,334.6,0.00,18.5,22.0,"02:29:52",1
"20/09/27","02:40",0.0,19.3,95.1,1005.2,333.4,1.1,1.7,314.1,0.00,18.5,21.9,"02:33:52",1
"20/09/27","02:50",0.0,19.3,95.1,1005.2,324.9,1.1,1.9,341.0,0.00,18.5,22.0,"02:49:28",1
"20/09/27","03:00",0.0,19.4,95.1,1005.5,315.8,1.5,2.2,327.6,0.00,18.6,22.0,"02:50:48",1
"20/09/27","03:10",0.0,19.5,95.1,1005.5,336.2,1.1,1.8,333.9,0.00,18.7,21.9,"03:02:24",1
"20/09/27","03:20",0.0,19.5,95.0,1005.5,340.0,0.8,1.6,332.7,0.00,18.7,22.0,"03:10:48",1
"20/09/27","03:30",0.0,19.5,95.0,1005.2,338.3,0.7,1.4,357.5,0.00,18.7,21.9,"03:21:44",1
"20/09/27","03:40",0.0,19.4,95.1,1005.5,356.5,0.7,1.7,338.8,0.00,18.6,21.9,"03:30:08",1
"20/09/27","03:50",0.0,19.4,95.1,1006.0,315.2,0.6,1.3,307.8,0.00,18.6,21.9,"03:49:44",1
"20/09/27","04:00",0.0,19.4,95.1,1005.7,332.8,1.0,2.4,3.8,0.00,18.6,22.0,"03:53:04",1
"20/09/27","04:10",0.0,19.4,95.1,1005.7,336.5,1.3,2.4,330.0,0.00,18.6,21.8,"04:03:12",1
"20/09/27","04:20",0.0,19.4,95.0,1005.2,329.9,1.3,2.2,335.1,0.00,18.6,21.8,"04:19:28",1
"20/09/27","04:30",0.0,19.4,95.1,1005.7,337.4,1.2,2.1,314.1,0.00,18.6,21.8,"04:21:36",1
"20/09/27","04:40",0.0,19.4,95.0,1005.5,338.9,1.0,1.9,344.1,0.00,18.6,21.8,"04:34:08",1
"20/09/27","04:50",0.0,19.3,95.0,1005.5,330.4,1.2,2.2,334.5,0.00,18.5,21.8,"04:44:08",1
"20/09/27","05:00",0.0,19.3,95.0,1006.0,323.9,1.2,2.5,341.9,0.00,18.5,21.8,"04:52:40",1
"20/09/27","05:10",0.0,19.1,95.0,1005.5,324.2,1.3,2.0,332.0,0.00,18.3,21.8,"05:06:32",1
"20/09/27","05:20",0.0,19.0,95.0,1006.0,322.7,1.6,3.2,310.2,0.00,18.2,21.8,"05:19:20",1
"20/09/27","05:30",0.0,19.1,94.9,1006.0,320.3,1.7,3.4,328.8,0.00,18.3,21.9,"05:22:16",1
"20/09/27","05:40",0.0,19.2,94.6,1006.0,332.3,2.3,4.4,342.5,0.00,18.4,21.9,"05:36:00",1
"20/09/27","05:50",0.0,19.2,94.4,1006.2,324.8,2.0,3.5,338.4,0.00,18.3,21.8,"05:40:08",1
"20/09/27","06:00",0.0,19.1,94.2,1006.4,330.9,1.5,2.7,345.9,0.00,18.2,21.7,"05:56:08",1
"20/09/27","06:10",0.0,19.3,94.1,1006.4,326.4,1.8,4.0,337.6,0.00,18.4,21.7,"06:03:44",1
"20/09/27","06:20",0.0,19.1,94.0,1006.4,330.1,1.3,2.6,325.7,0.00,18.2,21.7,"06:10:32",1
"20/09/27","06:30",0.0,19.3,93.8,1006.2,331.7,1.5,3.1,330.6,0.00,18.3,21.5,"06:25:12",1
"20/09/27","06:40",0.0,19.9,93.1,1006.2,323.9,2.1,4.4,343.4,0.02,18.8,21.6,"06:34:56",1
"20/09/27","06:50",0.0,20.2,92.3,1006.4,311.7,1.2,2.5,327.6,0.03,19.0,21.8,"06:41:28",1
"20/09/27","07:00",0.0,20.5,91.4,1006.2,306.1,1.1,3.2,334.3,0.05,19.1,21.7,"06:56:00",1
"20/09/27","07:10",0.0,20.6,89.9,1006.2,311.5,1.6,4.4,320.6,0.04,18.9,21.8,"07:03:04",1
"20/09/27","07:20",0.0,20.8,88.7,1006.4,314.2,1.3,2.7,341.1,0.06,18.9,21.5,"07:13:28",1
"20/09/27","07:30",0.0,20.8,87.1,1006.7,322.4,1.7,3.3,348.6,0.05,18.6,21.6,"07:27:12",1
"20/09/27","07:40",0.0,20.8,85.4,1006.4,328.3,2.2,4.8,0.4,0.05,18.3,21.7,"07:36:32",1
"20/09/27","07:50",0.0,21.0,84.4,1006.2,327.8,2.0,3.4,320.1,0.07,18.3,21.8,"07:40:48",1
"20/09/27","08:00",0.0,21.0,83.4,1006.4,324.9,1.8,3.3,331.8,0.07,18.1,21.6,"07:58:40",1
"20/09/27","08:10",0.0,21.2,82.5,1006.7,323.0,1.6,3.2,345.0,0.07,18.1,21.9,"08:02:32",1
"20/09/27","08:20",0.0,21.6,81.6,1006.9,306.3,1.3,3.9,334.8,0.12,18.4,21.7,"08:19:12",1
"20/09/27","08:30",0.0,21.9,80.5,1006.9,305.3,1.5,2.7,243.6,0.12,18.4,21.9,"08:20:32",1
"20/09/27","08:40",0.0,21.9,79.9,1006.7,322.7,1.5,3.3,339.3,0.09,18.3,21.8,"08:32:48",1
"20/09/27","08:50",0.0,22.1,79.6,1006.9,338.7,1.7,4.8,342.0,0.19,18.4,22.1,"08:48:24",1
"20/09/27","09:00",0.0,23.0,77.2,1006.9,15.7,1.6,4.2,29.3,0.39,18.8,22.4,"08:58:56",1
"20/09/27","09:10",0.0,23.2,74.1,1006.9,342.0,2.3,4.3,250.4,0.35,18.4,22.4,"09:09:12",1
"20/09/27","09:20",0.0,23.2,73.6,1006.7,305.8,1.8,5.4,338.6,0.29,18.3,22.5,"09:17:28",1
"20/09/27","09:30",0.0,23.3,74.3,1006.9,342.6,1.8,4.5,354.4,0.27,18.5,22.5,"09:25:44",1
"20/09/27","09:40",0.0,23.4,73.2,1006.9,351.1,2.2,4.9,351.3,0.29,18.4,22.9,"09:33:28",1
"20/09/27","09:50",0.0,23.4,73.1,1006.4,332.5,2.2,4.3,351.1,0.29,18.3,23.1,"09:48:08",1
"20/09/27","10:00",0.0,23.3,72.5,1006.7,340.8,2.0,5.9,335.9,0.24,18.1,22.9,"09:54:56",1
"20/09/27","10:10",0.0,23.6,71.5,1006.7,358.9,2.2,4.8,310.3,0.35,18.2,22.9,"10:00:48",1
"20/09/27","10:20",0.0,23.6,70.9,1006.9,332.5,2.6,5.5,328.3,0.38,18.1,23.0,"10:16:48",1
"20/09/27","10:30",0.0,24.0,70.3,1006.7,329.9,2.7,5.7,337.5,0.48,18.3,23.4,"10:22:00",1
"20/09/27","10:40",0.0,24.4,69.1,1006.4,337.7,2.1,4.5,346.3,0.42,18.4,23.4,"10:37:28",1
"20/09/27","10:50",0.0,24.0,68.3,1006.7,354.3,2.0,3.9,344.5,0.15,17.8,23.5,"10:41:12",1
"20/09/27","11:00",0.0,22.6,72.1,1006.7,351.8,2.5,5.5,356.0,0.13,17.4,23.5,"10:56:32",1
"20/09/27","11:10",0.0,22.4,75.6,1006.9,343.4,2.6,7.1,344.1,0.27,17.9,23.5,"11:00:32",1
"20/09/27","11:20",0.0,23.3,75.2,1006.9,348.4,2.2,4.8,321.3,0.47,18.7,23.7,"11:19:28",1
"20/09/27","11:30",0.0,24.0,71.2,1006.7,349.4,2.8,6.3,352.1,0.58,18.5,23.8,"11:23:20",1
"20/09/27","11:40",0.0,24.5,69.1,1006.4,330.9,2.8,6.4,339.4,0.57,18.5,24.1,"11:35:20",1
"20/09/27","11:50",0.2,25.1,68.2,1006.2,346.1,2.8,5.5,338.1,0.64,18.9,24.1,"11:42:40",1
"20/09/27","12:00",0.0,24.5,67.4,1006.4,348.2,2.7,5.2,17.8,0.43,18.1,24.3,"11:58:48",1
"20/09/27","12:10",0.0,24.1,67.8,1006.4,343.6,2.1,5.8,338.2,0.28,17.8,24.4,"12:03:20",1
"20/09/27","12:20",0.0,23.6,69.3,1006.7,354.8,2.1,4.5,339.6,0.23,17.7,24.5,"12:14:48",1
"20/09/27","12:30",0.0,23.4,70.7,1006.7,14.7,2.7,6.4,80.1,0.33,17.8,24.5,"12:26:40",1
"20/09/27","12:40",0.0,23.6,68.9,1006.2,344.7,2.7,6.3,335.3,0.40,17.6,24.5,"12:38:16",1
"20/09/27","12:50",0.0,24.2,66.6,1006.4,350.2,3.0,5.7,24.9,0.53,17.6,24.7,"12:46:24",1
"20/09/27","13:00",0.0,24.7,64.0,1006.2,350.8,3.1,6.7,359.4,0.57,17.5,24.9,"12:50:02",1
"20/09/27","13:10",0.0,25.4,64.0,1006.2,335.2,2.3,6.5,14.1,0.54,18.1,24.8,"13:00:16",1
"20/09/27","13:20",0.0,24.5,63.7,1006.4,344.5,3.0,7.9,333.8,0.43,17.2,24.9,"13:15:28",1
"20/09/27","13:30",0.0,23.7,63.1,1006.2,342.6,3.1,9.3,340.3,0.24,16.3,25.0,"13:24:48",1
"20/09/27","13:40",0.0,23.0,65.9,1006.4,343.5,2.8,6.3,339.5,0.11,16.3,24.8,"13:33:52",1
"20/09/27","13:50",0.0,23.0,67.4,1006.4,355.0,2.7,6.5,349.8,0.23,16.7,24.9,"13:40:56",1
"20/09/27","14:00",0.0,24.1,64.1,1006.2,324.1,2.5,6.4,321.2,0.49,16.9,25.0,"13:59:28",1
"20/09/27","14:10",0.0,23.1,63.2,1006.2,344.1,4.0,7.5,312.6,0.23,15.8,24.8,"14:02:48",1
"20/09/27","14:20",0.0,23.7,63.6,1006.2,352.4,2.7,5.9,342.3,0.37,16.4,24.9,"14:10:32",1
"20/09/27","14:30",0.0,24.3,63.2,1006.0,340.4,2.0,5.5,347.7,0.40,16.9,25.0,"14:23:20",1
"20/09/27","14:40",0.0,24.5,62.1,1005.7,317.4,2.2,5.7,343.4,0.39,16.8,25.1,"14:34:16",1
"20/09/27","14:50",0.0,24.7,61.0,1005.7,355.6,2.6,5.8,314.2,0.45,16.7,25.0,"14:48:24",1
"20/09/27","15:00",0.0,24.2,61.5,1006.0,13.9,2.7,6.3,357.0,0.37,16.4,25.1,"14:50:40",1
"20/09/27","15:10",0.0,23.9,62.2,1006.2,359.9,1.8,4.3,343.2,0.26,16.3,25.2,"15:07:04",1
"20/09/27","15:20",0.0,23.8,61.5,1005.7,346.0,2.0,5.8,338.2,0.27,16.0,25.3,"15:19:12",1
"20/09/27","15:30",0.0,23.3,60.2,1005.7,343.7,2.8,6.6,345.8,0.17,15.2,25.1,"15:21:44",1
"20/09/27","15:40",0.0,23.5,59.7,1006.0,346.3,2.5,5.7,303.4,0.23,15.3,25.2,"15:34:24",1
"20/09/27","15:50",0.0,23.5,59.7,1006.0,351.6,2.5,5.0,347.4,0.19,15.3,24.9,"15:43:04",1
"20/09/27","16:00",0.0,23.5,60.4,1006.0,345.5,2.2,6.6,333.9,0.16,15.4,25.0,"15:51:36",1
"20/09/27","16:10",0.0,23.2,61.5,1006.0,332.6,2.3,5.6,339.3,0.12,15.4,24.8,"16:00:40",1
"20/09/27","16:20",0.0,22.9,61.8,1006.2,341.5,2.8,6.4,351.6,0.11,15.2,24.7,"16:13:52",1
"20/09/27","16:30",0.0,22.8,62.3,1006.2,339.4,2.7,7.5,315.1,0.09,15.3,24.6,"16:25:28",1
"20/09/27","16:40",0.0,22.2,64.1,1006.4,340.3,2.1,4.2,337.0,0.03,15.1,24.5,"16:34:16",1
"20/09/27","16:50",0.0,21.9,64.7,1006.2,332.2,2.2,4.7,352.0,0.03,15.0,24.4,"16:44:48",1
"20/09/27","17:00",0.0,21.7,65.8,1006.4,330.4,1.8,3.9,329.9,0.01,15.1,24.4,"16:55:28",1
"20/09/27","17:10",0.0,21.5,66.9,1006.9,340.7,1.8,3.6,349.6,0.01,15.1,24.0,"17:06:16",1
"20/09/27","17:20",0.0,21.3,67.7,1006.9,322.6,1.3,2.4,349.1,0.00,15.1,24.1,"17:10:08",1
"20/09/27","17:30",0.0,21.1,68.6,1006.7,334.6,1.7,2.8,337.0,0.00,15.1,24.0,"17:22:40",1
"20/09/27","17:40",0.0,21.0,69.7,1006.9,338.3,1.6,3.1,346.7,0.00,15.3,23.7,"17:33:44",1
"20/09/27","17:50",0.0,20.4,70.7,1006.9,320.3,1.1,2.0,321.8,0.00,14.9,23.8,"17:41:44",1
"20/09/27","18:00",0.0,20.2,72.7,1007.1,331.5,0.8,2.0,332.5,0.00,15.2,23.6,"17:55:28",1
"20/09/27","18:10",0.0,19.5,75.2,1007.1,326.6,1.1,2.0,338.5,0.00,15.0,23.5,"18:02:32",1
"20/09/27","18:20",0.0,19.1,77.8,1007.6,322.4,1.3,2.7,327.9,0.00,15.2,23.5,"18:11:04",1
"20/09/27","18:30",0.0,18.8,79.6,1007.4,312.0,1.2,2.4,329.3,0.00,15.2,23.2,"18:27:20",1
"20/09/27","18:40",0.0,18.6,81.0,1007.6,330.3,1.1,2.2,329.7,0.00,15.3,23.1,"18:31:20",1
"20/09/27","18:50",0.0,18.3,82.1,1007.6,323.7,1.2,2.0,340.9,0.00,15.2,23.2,"18:46:32",1
"20/09/27","19:00",0.0,18.1,83.3,1007.6,317.3,1.2,2.0,336.7,0.00,15.3,23.1,"18:52:16",1
"20/09/27","19:10",0.0,18.1,84.1,1007.8,298.6,1.2,1.7,319.3,0.00,15.4,23.1,"19:04:24",1
"20/09/27","19:20",0.0,18.2,84.7,1007.8,336.3,1.0,1.7,320.2,0.00,15.6,22.8,"19:12:24",1
"20/09/27","19:30",0.0,18.0,85.0,1007.8,325.2,1.1,1.9,334.3,0.00,15.5,22.8,"19:22:00",1
"20/09/27","19:40",0.0,17.8,85.7,1008.1,317.0,1.1,2.0,341.4,0.00,15.4,22.6,"19:39:44",1
"20/09/27","19:50",0.0,17.8,86.1,1007.8,334.6,1.3,2.4,352.2,0.00,15.5,22.6,"19:40:32",1
"20/09/27","20:00",0.0,17.7,86.4,1008.6,320.4,1.1,1.7,333.3,0.00,15.4,22.5,"19:59:44",1
"20/09/27","20:10",0.0,17.9,86.8,1008.6,317.6,1.5,2.6,318.1,0.00,15.7,22.5,"20:01:52",1
"20/09/27","20:20",0.0,18.1,86.9,1008.8,317.4,1.7,3.6,332.7,0.00,15.9,22.4,"20:15:52",1
"20/09/27","20:30",0.0,18.4,86.8,1008.8,322.9,1.7,3.4,337.2,0.00,16.2,22.4,"20:28:48",1
"20/09/27","20:40",0.0,18.7,86.3,1009.0,327.9,2.0,3.3,342.1,0.00,16.4,22.3,"20:30:56",1
"20/09/27","20:50",0.0,18.7,85.9,1009.0,329.9,1.5,2.7,343.5,0.00,16.3,22.2,"20:40:24",1
"20/09/27","21:00",0.0,18.6,85.7,1009.3,333.2,1.6,2.6,334.2,0.00,16.2,22.1,"20:54:16",1
"20/09/27","21:10",0.0,18.4,85.9,1009.3,328.0,1.6,2.4,333.1,0.00,16.0,22.3,"21:04:24",1
"20/09/27","21:20",0.0,18.2,86.1,1009.0,324.3,1.6,2.5,338.5,0.00,15.9,22.2,"21:13:36",1
"20/09/27","21:30",0.0,17.9,86.6,1009.5,327.4,1.2,2.1,335.4,0.00,15.7,22.0,"21:24:16",1
"20/09/27","21:40",0.0,17.5,87.1,1009.3,329.2,1.3,2.5,334.3,0.00,15.4,21.9,"21:34:08",1
"20/09/27","21:50",0.0,17.5,87.8,1009.5,328.5,1.5,3.6,339.0,0.00,15.5,22.1,"21:49:12",1
"20/09/27","22:00",0.0,17.9,88.3,1009.5,321.2,2.0,3.4,343.0,0.00,16.0,21.9,"21:59:12",1
"20/09/27","22:10",0.0,18.1,88.6,1009.5,324.3,2.2,3.4,325.9,0.00,16.2,21.9,"22:07:04",1
"20/09/27","22:20",0.0,18.1,88.5,1009.7,323.1,2.2,4.4,337.3,0.00,16.2,21.7,"22:14:24",1
"20/09/27","22:30",0.0,18.0,88.5,1009.7,329.6,2.1,3.7,334.9,0.00,16.1,21.7,"22:29:36",1
"20/09/27","22:40",0.0,17.8,88.6,1010.0,318.2,1.7,3.5,325.4,0.00,15.9,21.7,"22:36:24",1
"20/09/27","22:50",0.0,17.5,88.7,1009.5,326.0,1.3,2.6,324.5,0.00,15.7,21.7,"22:42:08",1
"20/09/27","23:00",0.0,17.2,89.0,1009.5,325.0,1.2,1.9,324.9,0.00,15.4,21.6,"22:55:20",1
"20/09/27","23:10",0.0,16.9,89.3,1009.7,337.7,1.2,2.0,339.7,0.00,15.2,21.7,"23:09:44",1
"20/09/27","23:20",0.0,16.7,89.5,1010.0,298.2,1.1,1.9,304.0,0.00,15.0,21.6,"23:19:44",1
"20/09/27","23:30",0.0,16.8,89.9,1010.2,318.2,1.6,2.6,338.8,0.00,15.2,21.5,"23:26:16",1
"20/09/27","23:40",0.0,16.8,90.0,1010.0,326.4,1.6,2.9,337.9,0.00,15.2,21.5,"23:32:08",1
"20/09/27","23:50",0.0,16.8,90.2,1010.0,338.0,1.5,2.5,338.1,0.00,15.2,21.5,"23:43:04",1
"20/09/27","24:00",0.0,17.0,90.4,1009.7,326.0,2.0,3.5,317.8,0.00,15.5,21.4,"23:57:04",1
